Time,TemperatureF,DewpointF,PressureIn,WindDirection,WindDirectionDegrees,WindSpeedMPH,WindSpeedGustMPH,Humidity,HourlyPrecipIn,Conditions,Clouds,dailyrainin,SoftwareType,DateUTC
2013-02-10 00:01:00,41.0,27.8,29.86,WSW,247,0.0,-999.0,59,-99.99,,,0.00,Acu-Link.com,2013-02-10 08:01:00,
2013-02-10 00:17:00,41.2,25.4,29.85,South,180,1.1,-999.0,53,-99.99,,,0.00,Acu-Link.com,2013-02-10 08:17:00,
2013-02-10 00:32:00,42.4,24.6,29.86,SSW,202,0.0,-999.0,49,-99.99,,,0.00,Acu-Link.com,2013-02-10 08:32:00,
2013-02-10 00:47:00,40.8,25.0,29.85,South,180,0.0,-999.0,53,-99.99,,,0.00,Acu-Link.com,2013-02-10 08:47:00,
2013-02-10 01:19:00,41.0,25.2,29.85,SSW,202,0.0,-999.0,53,-99.99,,,0.00,Acu-Link.com,2013-02-10 09:19:00,
2013-02-10 01:34:00,39.7,27.4,29.86,East,90,0.0,-999.0,61,-99.99,,,0.00,Acu-Link.com,2013-02-10 09:34:00,
2013-02-10 01:49:00,39.0,27.5,29.86,South,180,0.0,-999.0,63,-99.99,,,0.00,Acu-Link.com,2013-02-10 09:49:00,
2013-02-10 02:04:00,38.1,27.8,29.86,NNE,22,0.0,-999.0,66,-99.99,,,0.00,Acu-Link.com,2013-02-10 10:04:00,
2013-02-10 02:20:00,38.1,28.5,29.86,SSE,157,0.0,-999.0,68,-99.99,,,0.00,Acu-Link.com,2013-02-10 10:20:00,
2013-02-10 02:35:00,38.3,29.4,29.86,SE,135,0.0,-999.0,70,-99.99,,,0.00,Acu-Link.com,2013-02-10 10:35:00,
2013-02-10 02:50:00,37.9,29.0,29.85,SSW,202,0.0,-999.0,70,-99.99,,,0.00,Acu-Link.com,2013-02-10 10:50:00,
2013-02-10 03:05:00,37.4,29.2,29.86,South,180,1.1,-999.0,72,-99.99,,,0.00,Acu-Link.com,2013-02-10 11:05:00,
2013-02-10 03:20:00,38.3,28.3,29.85,SE,135,0.0,-999.0,67,-99.99,,,0.00,Acu-Link.com,2013-02-10 11:20:00,
2013-02-10 03:36:00,37.2,29.0,29.85,South,180,0.0,-999.0,72,-99.99,,,0.00,Acu-Link.com,2013-02-10 11:36:00,
2013-02-10 03:51:00,37.4,29.2,29.85,SW,225,0.0,-999.0,72,-99.99,,,0.00,Acu-Link.com,2013-02-10 11:51:00,
2013-02-10 04:06:00,37.0,29.2,29.85,South,180,0.0,-999.0,73,-99.99,,,0.00,Acu-Link.com,2013-02-10 12:06:00,
2013-02-10 04:21:00,37.8,30.3,29.85,SSW,202,0.0,-999.0,74,-99.99,,,0.00,Acu-Link.com,2013-02-10 12:21:00,
2013-02-10 04:36:00,36.9,30.7,29.85,South,180,0.0,-999.0,78,-99.99,,,0.00,Acu-Link.com,2013-02-10 12:36:00,
2013-02-10 04:52:00,36.9,31.0,29.85,South,180,0.0,-999.0,79,-99.99,,,0.00,Acu-Link.com,2013-02-10 12:52:00,
2013-02-10 05:07:00,36.3,30.7,29.85,ENE,67,0.0,-999.0,80,-99.99,,,0.00,Acu-Link.com,2013-02-10 13:07:00,
2013-02-10 05:22:00,37.4,31.2,29.85,South,180,0.0,-999.0,78,-99.99,,,0.00,Acu-Link.com,2013-02-10 13:22:00,
2013-02-10 05:38:00,37.4,31.8,29.86,SE,135,0.0,-999.0,80,-99.99,,,0.00,Acu-Link.com,2013-02-10 13:38:00,
2013-02-10 05:53:00,37.4,32.4,29.85,South,180,0.0,-999.0,82,-99.99,,,0.00,Acu-Link.com,2013-02-10 13:53:00,
2013-02-10 06:08:00,35.6,29.7,29.86,NNE,22,3.2,-999.0,79,-99.99,,,0.00,Acu-Link.com,2013-02-10 14:08:00,
2013-02-10 06:23:00,36.7,31.7,29.86,South,180,2.7,-999.0,82,-99.99,,,0.00,Acu-Link.com,2013-02-10 14:23:00,
2013-02-10 06:38:00,36.5,33.0,29.86,SSE,157,0.0,-999.0,87,-99.99,,,0.00,Acu-Link.com,2013-02-10 14:38:00,
2013-02-10 06:54:00,36.1,32.6,29.87,NE,45,0.0,-999.0,87,-99.99,,,0.00,Acu-Link.com,2013-02-10 14:54:00,
2013-02-10 07:09:00,37.2,33.7,29.87,SSE,157,1.7,-999.0,87,-99.99,,,0.00,Acu-Link.com,2013-02-10 15:09:00,
2013-02-10 07:24:00,36.3,32.8,29.87,NE,45,2.2,-999.0,87,-99.99,,,0.00,Acu-Link.com,2013-02-10 15:24:00,
2013-02-10 07:39:00,36.3,32.5,29.88,NE,45,0.0,-999.0,86,-99.99,,,0.00,Acu-Link.com,2013-02-10 15:39:00,
2013-02-10 07:54:00,36.9,32.2,29.89,ENE,67,1.1,-999.0,83,-99.99,,,0.00,Acu-Link.com,2013-02-10 15:54:00,
2013-02-10 08:10:00,37.4,31.8,29.88,SSE,157,0.0,-999.0,80,-99.99,,,0.00,Acu-Link.com,2013-02-10 16:10:00,
2013-02-10 08:25:00,38.3,32.4,29.89,SSE,157,0.0,-999.0,79,-99.99,,,0.00,Acu-Link.com,2013-02-10 16:25:00,
2013-02-10 08:40:00,38.7,33.1,29.89,SW,225,0.0,-999.0,80,-99.99,,,0.00,Acu-Link.com,2013-02-10 16:40:00,
2013-02-10 08:55:00,39.7,33.7,29.88,SSW,202,0.0,-999.0,79,-99.99,,,0.00,Acu-Link.com,2013-02-10 16:55:00,
2013-02-10 09:10:00,41.2,34.5,29.88,NNE,22,2.2,-999.0,77,-99.99,,,0.00,Acu-Link.com,2013-02-10 17:10:00,
2013-02-10 09:26:00,42.8,35.8,29.89,NNE,22,0.0,-999.0,76,-99.99,,,0.00,Acu-Link.com,2013-02-10 17:26:00,
2013-02-10 09:41:00,44.6,37.2,29.88,WNW,292,0.0,-999.0,75,-99.99,,,0.00,Acu-Link.com,2013-02-10 17:41:00,
2013-02-10 09:56:00,46.2,38.0,29.88,ESE,112,0.0,-999.0,73,-99.99,,,0.00,Acu-Link.com,2013-02-10 17:56:00,
2013-02-10 10:11:00,47.8,38.9,29.88,NNE,22,1.1,-999.0,71,-99.99,,,0.00,Acu-Link.com,2013-02-10 18:11:00,
2013-02-10 10:26:00,49.6,40.2,29.88,NE,45,1.7,-999.0,70,-99.99,,,0.00,Acu-Link.com,2013-02-10 18:26:00,
2013-02-10 10:42:00,49.3,39.9,29.88,NNW,337,2.7,-999.0,70,-99.99,,,0.00,Acu-Link.com,2013-02-10 18:42:00,
2013-02-10 10:57:00,50.9,41.1,29.87,NE,45,2.7,-999.0,69,-99.99,,,0.00,Acu-Link.com,2013-02-10 18:57:00,
2013-02-10 11:12:00,52.0,41.4,29.87,North,0,2.7,-999.0,67,-99.99,,,0.00,Acu-Link.com,2013-02-10 19:12:00,
2013-02-10 11:27:00,53.2,40.9,29.86,NNE,22,3.2,-999.0,63,-99.99,,,0.00,Acu-Link.com,2013-02-10 19:27:00,
2013-02-10 11:43:00,54.5,39.6,29.86,NNE,22,3.2,-999.0,57,-99.99,,,0.00,Acu-Link.com,2013-02-10 19:43:00,
2013-02-10 11:58:00,56.1,39.7,29.84,North,0,1.1,-999.0,54,-99.99,,,0.00,Acu-Link.com,2013-02-10 19:58:00,
2013-02-10 12:13:00,57.2,40.2,29.84,NNE,22,1.7,-999.0,53,-99.99,,,0.00,Acu-Link.com,2013-02-10 20:13:00,
2013-02-10 12:28:00,57.0,36.4,29.82,West,270,1.1,-999.0,46,-99.99,,,0.00,Acu-Link.com,2013-02-10 20:28:00,
2013-02-10 12:43:00,58.1,38.0,29.81,NE,45,3.2,-999.0,47,-99.99,,,0.00,Acu-Link.com,2013-02-10 20:43:00,
2013-02-10 12:59:00,59.5,37.6,29.82,NW,315,1.7,-999.0,44,-99.99,,,0.00,Acu-Link.com,2013-02-10 20:59:00,
2013-02-10 13:14:00,60.8,37.0,29.80,NNW,337,2.2,-999.0,41,-99.99,,,0.00,Acu-Link.com,2013-02-10 21:14:00,
2013-02-10 13:29:00,61.2,36.7,29.80,SSW,202,2.2,-999.0,40,-99.99,,,0.00,Acu-Link.com,2013-02-10 21:29:00,
2013-02-10 13:44:00,62.2,36.9,29.80,NW,315,1.7,-999.0,39,-99.99,,,0.00,Acu-Link.com,2013-02-10 21:44:00,
2013-02-10 13:59:00,62.1,35.5,29.80,WNW,292,2.7,-999.0,37,-99.99,,,0.00,Acu-Link.com,2013-02-10 21:59:00,
2013-02-10 14:15:00,60.6,36.8,29.78,NW,315,2.7,-999.0,41,-99.99,,,0.00,Acu-Link.com,2013-02-10 22:15:00,
2013-02-10 14:30:00,61.9,36.7,29.78,SSW,202,1.7,-999.0,39,-99.99,,,0.00,Acu-Link.com,2013-02-10 22:30:00,
2013-02-10 14:45:00,61.3,35.5,29.78,West,270,2.7,-999.0,38,-99.99,,,0.00,Acu-Link.com,2013-02-10 22:45:00,
2013-02-10 15:00:00,62.1,36.8,29.78,West,270,1.1,-999.0,39,-99.99,,,0.00,Acu-Link.com,2013-02-10 23:00:00,
2013-02-10 15:16:00,62.1,36.8,29.78,ENE,67,1.7,-999.0,39,-99.99,,,0.00,Acu-Link.com,2013-02-10 23:16:00,
2013-02-10 15:31:00,62.2,36.9,29.79,South,180,2.2,-999.0,39,-99.99,,,0.00,Acu-Link.com,2013-02-10 23:31:00,
2013-02-10 15:46:00,61.3,36.1,29.79,SE,135,1.1,-999.0,39,-99.99,,,0.00,Acu-Link.com,2013-02-10 23:46:00,
2013-02-10 16:01:00,63.0,40.2,29.79,NW,315,1.7,-999.0,43,-99.99,,,0.00,Acu-Link.com,2013-02-11 00:01:00,
2013-02-10 16:16:00,60.8,39.9,29.79,NE,45,2.2,-999.0,46,-99.99,,,0.00,Acu-Link.com,2013-02-11 00:16:00,
2013-02-10 16:32:00,59.4,41.3,29.78,West,270,1.1,-999.0,51,-99.99,,,0.00,Acu-Link.com,2013-02-11 00:32:00,
2013-02-10 16:47:00,59.2,41.1,29.78,SSW,202,0.0,-999.0,51,-99.99,,,0.00,Acu-Link.com,2013-02-11 00:47:00,
2013-02-10 17:02:00,59.0,40.9,29.78,SSW,202,1.7,-999.0,51,-99.99,,,0.00,Acu-Link.com,2013-02-11 01:02:00,
2013-02-10 17:17:00,57.2,41.2,29.77,South,180,2.2,-999.0,55,-99.99,,,0.00,Acu-Link.com,2013-02-11 01:17:00,
2013-02-10 17:33:00,56.8,41.3,29.78,SW,225,0.0,-999.0,56,-99.99,,,0.00,Acu-Link.com,2013-02-11 01:33:00,
2013-02-10 17:48:00,55.4,42.2,29.79,NE,45,2.7,-999.0,61,-99.99,,,0.00,Acu-Link.com,2013-02-11 01:48:00,
2013-02-10 18:03:00,54.1,42.2,29.80,North,0,0.0,-999.0,64,-99.99,,,0.00,Acu-Link.com,2013-02-11 02:03:00,
2013-02-10 18:18:00,52.7,42.8,29.80,SSW,202,1.1,-999.0,69,-99.99,,,0.00,Acu-Link.com,2013-02-11 02:18:00,
2013-02-10 18:33:00,51.6,43.2,29.80,WNW,292,2.7,-999.0,73,-99.99,,,0.00,Acu-Link.com,2013-02-11 02:33:00,
2013-02-10 18:49:00,50.7,42.7,29.80,North,0,2.2,-999.0,74,-99.99,,,0.00,Acu-Link.com,2013-02-11 02:49:00,
2013-02-10 19:04:00,50.5,42.2,29.80,NNE,22,2.7,-999.0,73,-99.99,,,0.00,Acu-Link.com,2013-02-11 03:04:00,
2013-02-10 19:19:00,49.8,42.5,29.80,North,0,1.7,-999.0,76,-99.99,,,0.00,Acu-Link.com,2013-02-11 03:19:00,
2013-02-10 19:34:00,48.7,41.8,29.80,WSW,247,1.7,-999.0,77,-99.99,,,0.00,Acu-Link.com,2013-02-11 03:34:00,
2013-02-10 19:50:00,48.4,40.8,29.80,NNE,22,2.7,-999.0,75,-99.99,,,0.00,Acu-Link.com,2013-02-11 03:50:00,
2013-02-10 20:05:00,48.2,39.6,29.80,NNE,22,2.7,-999.0,72,-99.99,,,0.00,Acu-Link.com,2013-02-11 04:05:00,
2013-02-10 20:20:00,48.2,38.5,29.81,West,270,2.2,-999.0,69,-99.99,,,0.00,Acu-Link.com,2013-02-11 04:20:00,
2013-02-10 20:35:00,48.0,37.2,29.82,NE,45,2.7,-999.0,66,-99.99,,,0.00,Acu-Link.com,2013-02-11 04:35:00,
2013-02-10 20:50:00,48.0,37.2,29.82,South,180,0.0,-999.0,66,-99.99,,,0.00,Acu-Link.com,2013-02-11 04:50:00,
2013-02-10 21:06:00,47.5,35.9,29.82,South,180,2.2,-999.0,64,-99.99,,,0.00,Acu-Link.com,2013-02-11 05:06:00,
2013-02-10 21:21:00,46.8,35.7,29.82,SSW,202,1.7,-999.0,65,-99.99,,,0.00,Acu-Link.com,2013-02-11 05:21:00,
2013-02-10 21:36:00,47.3,34.5,29.82,WNW,292,0.0,-999.0,61,-99.99,,,0.00,Acu-Link.com,2013-02-11 05:36:00,
2013-02-10 21:51:00,47.1,34.8,29.82,SE,135,0.0,-999.0,62,-99.99,,,0.00,Acu-Link.com,2013-02-11 05:51:00,
2013-02-10 22:07:00,46.4,34.9,29.82,South,180,0.0,-999.0,64,-99.99,,,0.00,Acu-Link.com,2013-02-11 06:07:00,
2013-02-10 22:22:00,45.9,35.2,29.83,SSE,157,0.0,-999.0,66,-99.99,,,0.00,Acu-Link.com,2013-02-11 06:22:00,
2013-02-10 22:37:00,45.5,34.0,29.82,SSW,202,1.1,-999.0,64,-99.99,,,0.00,Acu-Link.com,2013-02-11 06:37:00,
2013-02-10 22:52:00,44.6,33.6,29.83,NE,45,0.0,-999.0,65,-99.99,,,0.00,Acu-Link.com,2013-02-11 06:52:00,
2013-02-10 23:08:00,44.6,34.0,29.83,SSW,202,2.2,-999.0,66,-99.99,,,0.00,Acu-Link.com,2013-02-11 07:08:00,
2013-02-10 23:23:00,44.2,33.2,29.84,NE,45,3.2,-999.0,65,-99.99,,,0.00,Acu-Link.com,2013-02-11 07:23:00,
2013-02-10 23:38:00,43.9,34.0,29.84,SW,225,2.7,-999.0,68,-99.99,,,0.00,Acu-Link.com,2013-02-11 07:38:00,
2013-02-10 23:53:00,45.9,32.4,29.84,SW,225,2.2,-999.0,59,-99.99,,,0.00,Acu-Link.com,2013-02-11 07:53:00,